AUL149 ULAA-ULLI

Flight info

Callsign AUL149
Flight time 1h 24m
Altitude 36000
Route N0460F360 MAKOG T821 ROGID M856 GIKUR T458 BEPOL
Aircraft B738/M-VGDW/C

Departure

Time 2026-05-05 17:24
Airport Talagi Airport (ULAA)

Arrival

Time 2026-05-05 18:49
Airport Pulkovo Airport (ULLI)
Time Latitude Longitude Altitude Speed Heading
2026-05-05 16:55 64.59664 40.71480 39 ft 0 kts 186°
2026-05-05 17:11 64.59674 40.71483 39 ft 3 kts 191°
2026-05-05 17:11 64.59693 40.71496 39 ft 3 kts 211°
2026-05-05 17:12 64.59708 40.71523 38 ft 3 kts 240°
2026-05-05 17:12 64.59712 40.71547 39 ft 2 kts 268°
2026-05-05 17:12 64.59713 40.71561 39 ft 0 kts 276°
2026-05-05 17:17 64.59713 40.71560 39 ft 1 kts 276°
2026-05-05 17:18 64.59715 40.71517 39 ft 4 kts 276°
2026-05-05 17:18 64.59719 40.71440 39 ft 6 kts 284°
2026-05-05 17:18 64.59722 40.71350 39 ft 6 kts 275°
2026-05-05 17:18 64.59742 40.71278 39 ft 5 kts 330°
2026-05-05 17:19 64.59780 40.71275 39 ft 6 kts
2026-05-05 17:19 64.59827 40.71324 38 ft 9 kts 59°
2026-05-05 17:19 64.59825 40.71500 39 ft 12 kts 97°
2026-05-05 17:19 64.59815 40.71684 39 ft 11 kts 95°
2026-05-05 17:20 64.59806 40.71868 39 ft 12 kts 97°
2026-05-05 17:20 64.59795 40.72079 39 ft 14 kts 96°
2026-05-05 17:20 64.59783 40.72348 39 ft 19 kts 96°
2026-05-05 17:20 64.59765 40.72696 39 ft 22 kts 96°
2026-05-05 17:21 64.59748 40.73046 39 ft 21 kts 96°
2026-05-05 17:21 64.59732 40.73386 39 ft 21 kts 96°
2026-05-05 17:21 64.59712 40.73715 39 ft 20 kts 103°
2026-05-05 17:22 64.59725 40.74182 37 ft 11 kts 11°
2026-05-05 17:22 64.59799 40.74207 39 ft 11 kts
2026-05-05 17:22 64.59872 40.74221 36 ft 11 kts
2026-05-05 17:22 64.59905 40.74174 35 ft 4 kts 279°
2026-05-05 17:23 64.59907 40.74137 35 ft 0 kts 275°
2026-05-05 17:23 64.59907 40.74136 35 ft 2 kts 275°
2026-05-05 17:23 64.59917 40.73886 33 ft 40 kts 276°
2026-05-05 17:23 64.59978 40.72663 37 ft 108 kts 275°
2026-05-05 17:24 64.60049 40.70541 86 ft 156 kts 269°
2026-05-05 17:24 64.60099 40.67977 738 ft 161 kts 270°
2026-05-05 17:24 64.60180 40.65247 1424 ft 170 kts 276°
2026-05-05 17:24 64.60302 40.62553 2247 ft 172 kts 275°
2026-05-05 17:25 64.60441 40.59608 2667 ft 195 kts 275°
2026-05-05 17:25 64.60577 40.57379 2784 ft 215 kts 276°
2026-05-05 17:25 64.60881 40.52572 3325 ft 238 kts 274°
2026-05-05 17:25 64.61085 40.48648 3970 ft 247 kts 273°
2026-05-05 17:26 64.61059 40.44730 4815 ft 240 kts 249°
2026-05-05 17:26 64.60221 40.41362 5781 ft 238 kts 234°
2026-05-05 17:26 64.59167 40.38398 6667 ft 240 kts 229°
2026-05-05 17:26 64.58024 40.35499 7411 ft 243 kts 229°
2026-05-05 17:27 64.56867 40.32644 8165 ft 245 kts 228°
2026-05-05 17:27 64.55702 40.29692 8904 ft 251 kts 229°
2026-05-05 17:27 64.54521 40.26677 9767 ft 253 kts 229°
2026-05-05 17:27 64.53296 40.23576 10164 ft 272 kts 229°
2026-05-05 17:28 64.51965 40.20194 10348 ft 295 kts 229°
2026-05-05 17:28 64.50531 40.16538 10534 ft 317 kts 229°
2026-05-05 17:28 64.49014 40.12672 10941 ft 329 kts 229°
2026-05-05 17:28 64.47472 40.08745 11653 ft 330 kts 229°
2026-05-05 17:29 64.45923 40.04804 12435 ft 330 kts 230°
2026-05-05 17:29 64.44377 40.00855 13236 ft 332 kts 230°
2026-05-05 17:29 64.42816 39.96905 14069 ft 331 kts 230°
2026-05-05 17:29 64.41250 39.92971 14791 ft 333 kts 230°
2026-05-05 17:30 64.39682 39.88996 15440 ft 335 kts 230°
2026-05-05 17:30 64.38107 39.85014 16142 ft 336 kts 231°
2026-05-05 17:30 64.36529 39.81026 16823 ft 337 kts 231°
2026-05-05 17:30 64.34946 39.77034 17441 ft 339 kts 231°
2026-05-05 17:31 64.33351 39.73021 18100 ft 339 kts 231°
2026-05-05 17:31 64.31751 39.69002 18694 ft 341 kts 231°
2026-05-05 17:31 64.30143 39.64971 19237 ft 344 kts 231°
2026-05-05 17:31 64.28513 39.60895 19774 ft 346 kts 231°
2026-05-05 17:32 64.26874 39.56804 20282 ft 349 kts 231°
2026-05-05 17:32 64.25222 39.52690 20764 ft 352 kts 231°
2026-05-05 17:32 64.23555 39.48546 21240 ft 354 kts 231°
2026-05-05 17:32 64.21878 39.44384 21725 ft 356 kts 231°
2026-05-05 17:33 64.20185 39.40196 22177 ft 358 kts 231°
2026-05-05 17:33 64.18486 39.35995 22608 ft 361 kts 231°
2026-05-05 17:33 64.16770 39.31761 23059 ft 363 kts 231°
2026-05-05 17:33 64.15045 39.27512 23467 ft 365 kts 231°
2026-05-05 17:34 64.13308 39.23243 23847 ft 367 kts 231°
2026-05-05 17:34 64.11565 39.18965 24235 ft 369 kts 231°
2026-05-05 17:34 64.09807 39.14658 24598 ft 371 kts 231°
2026-05-05 17:34 64.08034 39.10329 24942 ft 374 kts 231°
2026-05-05 17:35 64.06255 39.05974 25267 ft 376 kts 232°
2026-05-05 17:35 64.04570 39.01404 25571 ft 377 kts 234°
2026-05-05 17:35 64.02959 38.96667 25896 ft 378 kts 235°
2026-05-05 17:35 64.01368 38.91878 26213 ft 381 kts 236°
2026-05-05 17:36 63.99768 38.87053 26525 ft 382 kts 236°
2026-05-05 17:36 63.98150 38.82207 26773 ft 386 kts 235°
2026-05-05 17:36 63.96507 38.77330 26924 ft 391 kts 235°
2026-05-05 17:36 63.94838 38.72416 27200 ft 393 kts 235°
2026-05-05 17:37 63.93159 38.67501 27496 ft 394 kts 234°
2026-05-05 17:37 63.92046 38.64259 27757 ft 393 kts 234°
2026-05-05 17:37 63.89802 38.57738 28337 ft 390 kts 234°
2026-05-05 17:37 63.88131 38.52895 28723 ft 389 kts 234°
2026-05-05 17:38 63.86461 38.48066 29050 ft 389 kts 234°
2026-05-05 17:38 63.84791 38.43245 29394 ft 388 kts 234°
2026-05-05 17:38 63.83124 38.38442 29759 ft 387 kts 234°
2026-05-05 17:38 63.81458 38.33655 30127 ft 386 kts 234°
2026-05-05 17:39 63.79799 38.28898 30448 ft 385 kts 234°
2026-05-05 17:39 63.78133 38.24131 30705 ft 387 kts 234°
2026-05-05 17:39 63.76462 38.19363 30988 ft 387 kts 234°
2026-05-05 17:39 63.74791 38.14601 31324 ft 386 kts 234°
2026-05-05 17:40 63.73125 38.09862 31642 ft 385 kts 234°
2026-05-05 17:40 63.71456 38.05124 31880 ft 386 kts 234°
2026-05-05 17:40 63.69781 38.00379 32146 ft 386 kts 234°
2026-05-05 17:40 63.68106 37.95644 32406 ft 387 kts 234°
2026-05-05 17:41 63.66429 37.90916 32682 ft 387 kts 234°
2026-05-05 17:41 63.64747 37.86182 32952 ft 387 kts 234°
2026-05-05 17:41 63.63067 37.81463 33189 ft 387 kts 234°
2026-05-05 17:41 63.61382 37.76739 33432 ft 387 kts 233°
2026-05-05 17:42 63.59695 37.72023 33669 ft 387 kts 233°
2026-05-05 17:42 63.58006 37.67311 33923 ft 387 kts 233°
2026-05-05 17:42 63.56315 37.62601 34122 ft 388 kts 233°
2026-05-05 17:42 63.54622 37.57897 34345 ft 388 kts 233°
2026-05-05 17:43 63.52923 37.53186 34528 ft 389 kts 233°
2026-05-05 17:43 63.51216 37.48460 34690 ft 391 kts 233°
2026-05-05 17:43 63.49500 37.43719 34806 ft 393 kts 233°
2026-05-05 17:43 63.47775 37.38964 35002 ft 394 kts 233°
2026-05-05 17:44 63.46051 37.34220 35215 ft 393 kts 233°
2026-05-05 17:44 63.44321 37.29467 35380 ft 395 kts 233°
2026-05-05 17:44 63.42581 37.24708 35539 ft 396 kts 233°
2026-05-05 17:45 63.39075 37.15141 35593 ft 399 kts 233°
2026-05-05 17:45 63.35593 37.05686 35606 ft 395 kts 233°
2026-05-05 17:46 63.32086 36.96197 35606 ft 393 kts 233°
2026-05-05 17:46 63.28621 36.86857 35615 ft 390 kts 232°
2026-05-05 17:47 63.25168 36.77577 35624 ft 389 kts 232°
2026-05-05 17:47 63.21706 36.68330 35626 ft 390 kts 232°
2026-05-05 17:48 63.17776 36.59942 35637 ft 395 kts 225°
2026-05-05 17:48 63.13667 36.51837 35641 ft 397 kts 225°
2026-05-05 17:49 63.09571 36.43731 35640 ft 399 kts 225°
2026-05-05 17:49 63.05430 36.35539 35646 ft 401 kts 225°
2026-05-05 17:50 63.01244 36.27284 35648 ft 402 kts 225°
2026-05-05 17:50 62.97073 36.19096 35644 ft 402 kts 225°
2026-05-05 17:51 62.92900 36.10931 35646 ft 401 kts 225°
2026-05-05 17:51 62.88757 36.02858 35657 ft 401 kts 225°
2026-05-05 17:52 62.84606 35.94747 35655 ft 400 kts 225°
2026-05-05 17:52 62.80475 35.86624 35666 ft 399 kts 225°
2026-05-05 17:53 62.76352 35.78538 35663 ft 398 kts 225°
2026-05-05 17:53 62.72233 35.70501 35672 ft 397 kts 225°
2026-05-05 17:54 62.68123 35.62515 35674 ft 396 kts 225°
2026-05-05 17:54 62.64013 35.54562 35676 ft 395 kts 225°
2026-05-05 17:55 62.60568 35.47922 35670 ft 395 kts 225°
2026-05-05 17:55 62.56456 35.40019 35675 ft 395 kts 225°
2026-05-05 17:56 62.52339 35.32139 35686 ft 395 kts 225°
2026-05-05 17:56 62.48226 35.24296 35683 ft 395 kts 225°
2026-05-05 17:57 62.44095 35.16442 35683 ft 395 kts 225°
2026-05-05 17:57 62.39959 35.08615 35688 ft 396 kts 225°
2026-05-05 17:58 62.35780 35.00857 35688 ft 397 kts 224°
2026-05-05 17:58 62.31569 34.93136 35683 ft 398 kts 224°
2026-05-05 17:59 62.27353 34.85415 35691 ft 399 kts 224°
2026-05-05 17:59 62.23130 34.77704 35690 ft 399 kts 224°
2026-05-05 18:00 62.18903 34.70010 35691 ft 398 kts 224°
2026-05-05 18:00 62.14705 34.62396 35693 ft 398 kts 224°
2026-05-05 18:01 62.10454 34.54716 35694 ft 397 kts 224°
2026-05-05 18:01 62.06228 34.47113 35690 ft 396 kts 224°
2026-05-05 18:02 62.02047 34.39617 35695 ft 395 kts 224°
2026-05-05 18:02 61.97809 34.32042 35695 ft 395 kts 224°
2026-05-05 18:03 61.93627 34.24592 35690 ft 395 kts 224°
2026-05-05 18:03 61.89428 34.17092 35692 ft 393 kts 226°
2026-05-05 18:04 61.85908 34.08371 35702 ft 388 kts 236°
2026-05-05 18:04 61.82667 33.99215 35698 ft 388 kts 235°
2026-05-05 18:05 61.79398 33.90095 35692 ft 389 kts 235°
2026-05-05 18:05 61.76114 33.80987 35689 ft 390 kts 235°
2026-05-05 18:06 61.72821 33.71894 35691 ft 390 kts 235°
2026-05-05 18:06 61.69522 33.62812 35693 ft 391 kts 234°
2026-05-05 18:07 61.66202 33.53714 35690 ft 392 kts 234°
2026-05-05 18:07 61.62873 33.44625 35693 ft 393 kts 234°
2026-05-05 18:08 61.59530 33.35533 35694 ft 394 kts 234°
2026-05-05 18:08 61.56167 33.26427 35692 ft 395 kts 234°
2026-05-05 18:09 61.52800 33.17336 35699 ft 395 kts 234°
2026-05-05 18:09 61.49412 33.08225 35696 ft 397 kts 234°
2026-05-05 18:10 61.45791 32.99501 35707 ft 399 kts 227°
2026-05-05 18:10 61.41758 32.91487 35708 ft 400 kts 227°
2026-05-05 18:11 61.37734 32.83437 35702 ft 401 kts 227°
2026-05-05 18:11 61.33718 32.75386 35698 ft 401 kts 226°
2026-05-05 18:12 61.29657 32.67439 35697 ft 403 kts 221°
2026-05-05 18:12 61.27255 32.64394 35716 ft 409 kts 210°
2026-05-05 18:12 61.24591 32.62185 35702 ft 414 kts 202°
2026-05-05 18:13 61.18802 32.60475 35653 ft 427 kts 190°
2026-05-05 18:13 61.15846 32.60133 35110 ft 432 kts 189°
2026-05-05 18:13 61.12846 32.59796 34480 ft 431 kts 190°
2026-05-05 18:13 61.09825 32.59429 33836 ft 429 kts 190°
2026-05-05 18:14 61.06842 32.59038 33170 ft 429 kts 191°
2026-05-05 18:14 61.03898 32.58635 32491 ft 429 kts 191°
2026-05-05 18:14 61.00931 32.58223 32021 ft 425 kts 191°
2026-05-05 18:14 60.97962 32.57816 31513 ft 420 kts 191°
2026-05-05 18:15 60.95100 32.57416 31114 ft 414 kts 191°
2026-05-05 18:15 60.92245 32.57006 30641 ft 410 kts 192°
2026-05-05 18:15 60.89420 32.56596 30177 ft 405 kts 192°
2026-05-05 18:15 60.86626 32.56191 29712 ft 401 kts 192°
2026-05-05 18:16 60.83859 32.55791 29246 ft 396 kts 192°
2026-05-05 18:16 60.81123 32.55396 28767 ft 393 kts 192°
2026-05-05 18:16 60.78411 32.55006 28303 ft 389 kts 192°
2026-05-05 18:16 60.75730 32.54623 27836 ft 385 kts 192°
2026-05-05 18:17 60.73067 32.54244 27373 ft 381 kts 192°
2026-05-05 18:17 60.70466 32.53631 26913 ft 372 kts 197°
2026-05-05 18:17 60.67933 32.52703 26454 ft 368 kts 199°
2026-05-05 18:17 60.65427 32.51709 26001 ft 365 kts 199°
2026-05-05 18:18 60.62954 32.50716 25560 ft 361 kts 199°
2026-05-05 18:18 60.60496 32.49740 25108 ft 359 kts 199°
2026-05-05 18:18 60.58051 32.48783 24668 ft 356 kts 199°
2026-05-05 18:18 60.55632 32.47848 24240 ft 353 kts 199°
2026-05-05 18:19 60.53233 32.46929 23798 ft 350 kts 199°
2026-05-05 18:19 60.50853 32.46024 23374 ft 347 kts 199°
2026-05-05 18:19 60.48487 32.45126 22948 ft 344 kts 199°
2026-05-05 18:19 60.46137 32.44238 22520 ft 341 kts 199°
2026-05-05 18:20 60.43812 32.43361 22106 ft 339 kts 199°
2026-05-05 18:20 60.41505 32.42492 21689 ft 336 kts 199°
2026-05-05 18:20 60.39221 32.41633 21281 ft 333 kts 199°
2026-05-05 18:20 60.36946 32.40778 20871 ft 331 kts 199°
2026-05-05 18:21 60.34689 32.39931 20464 ft 328 kts 199°
2026-05-05 18:21 60.32463 32.39097 20059 ft 325 kts 199°
2026-05-05 18:21 60.30243 32.38266 19655 ft 323 kts 199°
2026-05-05 18:21 60.28044 32.37445 19263 ft 321 kts 199°
2026-05-05 18:22 60.25849 32.36626 18863 ft 318 kts 199°
2026-05-05 18:22 60.23680 32.35818 18477 ft 316 kts 199°
2026-05-05 18:22 60.21530 32.35018 18088 ft 313 kts 199°
2026-05-05 18:22 60.19397 32.34224 17701 ft 311 kts 199°
2026-05-05 18:23 60.17279 32.33436 17317 ft 308 kts 199°
2026-05-05 18:23 60.15177 32.32656 16936 ft 306 kts 199°
2026-05-05 18:23 60.13088 32.31883 16562 ft 304 kts 199°
2026-05-05 18:23 60.11020 32.31119 16206 ft 301 kts 199°
2026-05-05 18:24 60.08978 32.30327 15839 ft 296 kts 204°
2026-05-05 18:24 60.07216 32.28548 15521 ft 277 kts 224°
2026-05-05 18:24 60.05869 32.25861 15063 ft 271 kts 236°
2026-05-05 18:24 60.04947 32.22667 14686 ft 260 kts 248°
2026-05-05 18:25 60.04321 32.19309 14339 ft 257 kts 251°
2026-05-05 18:25 60.03943 32.17064 14111 ft 257 kts 251°
2026-05-05 18:25 60.03197 32.12557 13659 ft 254 kts 251°
2026-05-05 18:25 60.02638 32.09202 13319 ft 254 kts 251°
2026-05-05 18:26 60.02076 32.05869 12995 ft 252 kts 251°
2026-05-05 18:26 60.01516 32.02563 12664 ft 250 kts 251°
2026-05-05 18:26 60.00956 31.99277 12346 ft 249 kts 251°
2026-05-05 18:26 60.00398 31.96024 12022 ft 247 kts 251°
2026-05-05 18:27 59.99847 31.92830 11680 ft 239 kts 251°
2026-05-05 18:27 59.99312 31.89733 11347 ft 232 kts 251°
2026-05-05 18:27 59.98793 31.86732 11040 ft 225 kts 250°
2026-05-05 18:27 59.98290 31.83828 10741 ft 218 kts 250°
2026-05-05 18:28 59.97330 31.78292 10362 ft 204 kts 250°
2026-05-05 18:28 59.96863 31.75615 10250 ft 204 kts 250°
2026-05-05 18:28 59.96394 31.72936 10160 ft 204 kts 250°
2026-05-05 18:29 59.95924 31.70254 10084 ft 205 kts 250°
2026-05-05 18:29 59.95460 31.67492 10040 ft 213 kts 255°
2026-05-05 18:29 59.95436 31.64506 9847 ft 221 kts 274°
2026-05-05 18:29 59.95879 31.61525 9591 ft 231 kts 289°
2026-05-05 18:30 59.96839 31.58896 9433 ft 238 kts 309°
2026-05-05 18:30 59.98250 31.57118 9435 ft 246 kts 331°
2026-05-05 18:30 59.99974 31.56518 9431 ft 262 kts 355°
2026-05-05 18:30 60.01790 31.57403 9444 ft 279 kts 22°
2026-05-05 18:31 60.03316 31.59906 9453 ft 290 kts 52°
2026-05-05 18:31 60.04240 31.63475 9478 ft 290 kts 71°
2026-05-05 18:31 60.04913 31.67270 9484 ft 290 kts 72°
2026-05-05 18:31 60.05579 31.71083 9482 ft 291 kts 71°
2026-05-05 18:32 60.06149 31.74955 9456 ft 290 kts 87°
2026-05-05 18:32 60.05910 31.78839 9447 ft 277 kts 119°
2026-05-05 18:32 60.04890 31.81959 9458 ft 261 kts 146°
2026-05-05 18:32 60.03422 31.83847 9473 ft 245 kts 169°
2026-05-05 18:33 60.01804 31.84453 9471 ft 232 kts 189°
2026-05-05 18:33 60.00245 31.83971 9483 ft 224 kts 202°
2026-05-05 18:33 59.98860 31.82699 9456 ft 217 kts 224°
2026-05-05 18:33 59.97876 31.80484 9467 ft 213 kts 241°
2026-05-05 18:34 59.97309 31.77757 9481 ft 213 kts 249°
2026-05-05 18:34 59.96799 31.74976 9476 ft 214 kts 249°
2026-05-05 18:34 59.96289 31.72179 9476 ft 215 kts 249°
2026-05-05 18:34 59.95780 31.69384 9477 ft 214 kts 249°
2026-05-05 18:35 59.95280 31.66596 9457 ft 215 kts 249°
2026-05-05 18:35 59.94753 31.63608 9216 ft 238 kts 249°
2026-05-05 18:35 59.94201 31.60466 8973 ft 243 kts 249°
2026-05-05 18:35 59.93637 31.57256 8724 ft 247 kts 249°
2026-05-05 18:36 59.93260 31.55115 8544 ft 246 kts 249°
2026-05-05 18:36 59.92507 31.50847 8196 ft 242 kts 250°
2026-05-05 18:36 59.91954 31.47712 7954 ft 239 kts 250°
2026-05-05 18:36 59.91404 31.44606 7699 ft 237 kts 250°
2026-05-05 18:37 59.91040 31.42554 7518 ft 237 kts 250°
2026-05-05 18:37 59.90491 31.39459 7289 ft 237 kts 250°
2026-05-05 18:37 59.89940 31.36364 7035 ft 237 kts 250°
2026-05-05 18:37 59.89389 31.33273 6784 ft 237 kts 250°
2026-05-05 18:38 59.88838 31.30175 6534 ft 237 kts 250°
2026-05-05 18:38 59.88286 31.27076 6288 ft 237 kts 250°
2026-05-05 18:38 59.87731 31.23981 6034 ft 238 kts 250°
2026-05-05 18:38 59.87176 31.20888 5838 ft 236 kts 250°
2026-05-05 18:39 59.86620 31.17800 5794 ft 240 kts 250°
2026-05-05 18:39 59.86073 31.14653 5665 ft 241 kts 252°
2026-05-05 18:39 59.85581 31.11461 5458 ft 240 kts 253°
2026-05-05 18:39 59.85106 31.08310 5252 ft 237 kts 253°
2026-05-05 18:40 59.84636 31.05202 5042 ft 232 kts 253°
2026-05-05 18:40 59.84174 31.02159 4863 ft 227 kts 253°
2026-05-05 18:40 59.83719 30.99179 4677 ft 223 kts 253°
2026-05-05 18:40 59.83272 30.96264 4498 ft 219 kts 253°
2026-05-05 18:41 59.82831 30.93402 4309 ft 214 kts 254°
2026-05-05 18:41 59.82400 30.90602 4145 ft 209 kts 254°
2026-05-05 18:41 59.81977 30.87864 3998 ft 204 kts 254°
2026-05-05 18:41 59.81563 30.85192 3987 ft 203 kts 254°
2026-05-05 18:42 59.81145 30.82502 3884 ft 202 kts 255°
2026-05-05 18:42 59.80739 30.79897 3700 ft 194 kts 255°
2026-05-05 18:42 59.80349 30.77396 3535 ft 184 kts 255°
2026-05-05 18:42 59.79905 30.75086 3406 ft 175 kts 247°
2026-05-05 18:43 59.79369 30.72944 3295 ft 174 kts 247°
2026-05-05 18:43 59.78831 30.70806 3174 ft 173 kts 247°
2026-05-05 18:43 59.78297 30.68671 3048 ft 172 kts 247°
2026-05-05 18:43 59.77768 30.66542 2924 ft 172 kts 248°
2026-05-05 18:44 59.77237 30.64405 2810 ft 173 kts 247°
2026-05-05 18:44 59.76702 30.62246 2690 ft 175 kts 247°
2026-05-05 18:44 59.76170 30.60083 2564 ft 174 kts 249°
2026-05-05 18:44 59.76036 30.57782 2405 ft 168 kts 288°
2026-05-05 18:45 59.76424 30.55652 2330 ft 159 kts 285°
2026-05-05 18:45 59.76702 30.53615 2203 ft 147 kts 284°
2026-05-05 18:45 59.76978 30.51654 2135 ft 149 kts 285°
2026-05-05 18:45 59.77254 30.49742 2064 ft 139 kts 285°
2026-05-05 18:46 59.77519 30.47932 1876 ft 134 kts 285°
2026-05-05 18:46 59.77777 30.46168 1697 ft 132 kts 285°
2026-05-05 18:46 59.78037 30.44400 1526 ft 134 kts 285°
2026-05-05 18:46 59.78299 30.42616 1351 ft 136 kts 285°
2026-05-05 18:47 59.78569 30.40784 1192 ft 139 kts 285°
2026-05-05 18:47 59.78842 30.38939 982 ft 138 kts 285°
2026-05-05 18:47 59.79106 30.37136 786 ft 136 kts 285°
2026-05-05 18:47 59.79371 30.35340 629 ft 135 kts 285°
2026-05-05 18:48 59.79635 30.33554 431 ft 135 kts 285°
2026-05-05 18:48 59.79897 30.31786 258 ft 133 kts 285°
2026-05-05 18:48 59.80156 30.30040 89 ft 131 kts 286°
2026-05-05 18:48 59.80395 30.28446 70 ft 107 kts 286°
2026-05-05 18:49 59.80563 30.27291 71 ft 47 kts 286°
2026-05-05 18:49 59.80635 30.26813 83 ft 18 kts 287°
2026-05-05 18:49 59.80594 30.26647 82 ft 7 kts 211°
2026-05-05 18:49 59.80573 30.26631 81 ft 0 kts 196°
2026-05-05 18:51 59.80558 30.26621 83 ft 6 kts 198°
2026-05-05 18:51 59.80502 30.26584 84 ft 10 kts 198°
2026-05-05 18:51 59.80437 30.26592 81 ft 10 kts 121°
2026-05-05 18:52 59.80415 30.26725 84 ft 10 kts 108°
2026-05-05 18:52 59.80392 30.26851 81 ft 10 kts 135°
2026-05-05 18:52 59.80327 30.26839 83 ft 10 kts 194°
2026-05-05 18:52 59.80264 30.26803 80 ft 9 kts 198°
2026-05-05 18:53 59.80202 30.26765 85 ft 9 kts 196°
2026-05-05 18:53 59.80142 30.26730 84 ft 9 kts 197°
2026-05-05 18:53 59.80084 30.26695 84 ft 9 kts 197°
2026-05-05 18:53 59.80028 30.26660 84 ft 8 kts 196°
2026-05-05 18:54 59.79973 30.26630 80 ft 8 kts 198°
2026-05-05 18:54 59.79920 30.26598 83 ft 8 kts 197°
2026-05-05 18:54 59.79868 30.26565 84 ft 8 kts 199°
2026-05-05 18:54 59.79819 30.26536 85 ft 7 kts 195°
2026-05-05 18:55 59.79782 30.26583 83 ft 7 kts 105°
2026-05-05 18:55 59.79778 30.26659 80 ft 1 kts 94°
2026-05-05 18:55 59.79778 30.26671 82 ft 1 kts 94°
2026-05-05 18:55 59.79778 30.26680 80 ft 0 kts 94°